[[{"header":{"parameterUnit":"m.s-1","parameterCategory":2,"la1":30.2991,"la2":30.254,"lo1":-89.0895,"lo2":-89.0444,"dy":0.0017,"dx":0.0017,"nx":28,"ny":28,"refTime":"2023-09-10T21:00:00:Z","depth":"0","parameterNumber":2,"parameterNumberName":"U-component_of_CURRENTS"},"data":[0,0,0,0,0,0,0,0,0,0,0,0,0,0,0,0,0,0,0,0,0,0,0,0,0,0,0,0,0,0,0,0,0,0,0,0,0,0,0,0,0,0,0,0,0,0,0,0,0,0,0,0,0,0,0,0,0,0,0.208,0.2081,0,0.2147,0.2148,0.2148,0.2169,0.2169,0.2169,0.2169,0.2151,0.2151,0.2151,0,0,0,0,0,0,0,0,0,0,0,0,0,0.2018,0.2018,0.208,0.2081,0.2083,0.2147,0.2148,0.2148,0.2169,0.2169,0.2169,0.2169,0.2152,0.2151,0.2151,0,0,0,0,0,0,0,0,0,0,0,0,0,0.2058,0.2018,0.208,0.2103,0.2106,0.2147,0.2148,0.2148,0.2169,0.2169,0.2169,0.2169,0.2152,0.2151,0.2151,0.2149,0,0,0.2149,0.2148,0,0,0,0,0,0,0,0,0.2056,0.206,0.2098,0.2101,0.2105,0.2152,0.2119,0.2145,0.2169,0.2142,0.2169,0.2169,0.2146,0.2146,0.2156,0.2148,0.2147,0.2149,0.2148,0.2148,0.2148,0,0,0,0,0,0,0,0.2053,0.2057,0.2104,0.21,0.2103,0.2126,0.213,0.2125,0.214,0.2145,0.2147,0.2159,0.2146,0.2156,0.2155,0.2147,0.2149,0.2148,0.2148,0.2148,0.2174,0.2175,0,0,0,0,0,0,0.2048,0.2054,0.2102,0.2106,0.2082,0.2127,0.2132,0.2135,0.2142,0.2145,0.2159,0.2159,0.2157,0.2156,0.2155,0.218,0.2148,0.2148,0.2147,0.2173,0.2174,0.2175,0,0,0,0,0,0,0.2046,0.2051,0.2099,0.2085,0.2093,0.2128,0.2131,0.2136,0.2151,0.2154,0.2154,0.2169,0.2157,0.2155,0.2163,0.2178,0.2147,0.2147,0.2172,0.2173,0.2175,0.2212,0,0,0,0,0,0,0.2043,0.2049,0.2045,0.2084,0.2093,0.2129,0.2131,0.2138,0.216,0.2161,0.2163,0.2161,0.2157,0.2164,0.2162,0.2176,0.2146,0.217,0.2172,0.2174,0.2209,0.2215,0.2219,0,0,0,0,0,0.2041,0.2038,0.2044,0.205,0.2087,0.2129,0.2136,0.2159,0.216,0.2171,0.2176,0.2162,0.2175,0.2164,0.2162,0.2176,0.2169,0.2172,0.2174,0.2207,0.2214,0.2219,0,0,0,0,0,0,0.1994,0.2042,0.2048,0.2055,0.2091,0.2134,0.2145,0.2162,0.2176,0.2175,0.2171,0.217,0.2183,0.2176,0.2164,0.2192,0.2171,0.2173,0.2197,0.2203,0.2208,0.2199,0.2146,0,0,0,0,0,0.1984,0.2002,0.2046,0.205,0.207,0.2107,0.2125,0.2147,0.2169,0.2176,0.2179,0.2183,0.2191,0.2194,0.2196,0.2207,0.2269,0.2217,0.2222,0.2226,0.2219,0.2317,0.2331,0.2183,0.2183,0.2183,0,0,0.1967,0.1995,0.2002,0.2043,0.2071,0.2111,0.2117,0.2151,0.2176,0.2169,0.2191,0.2196,0.2198,0.2216,0.2221,0.2212,0.2318,0.2229,0.2233,0.2223,0.2321,0.2336,0.2349,0.2185,0.2184,0.2184,0,0,0.1967,0.1967,0.1999,0.2033,0.2085,0.2107,0.2119,0.2167,0.2178,0.2207,0.2208,0.2222,0.2236,0.2242,0.2247,0.2277,0.2339,0.2284,0.2301,0.2398,0.2411,0.2423,0.2599,0.2626,0.2288,0.2289,0.2289,0,0.1948,0.1985,0.2011,0.2058,0.2081,0.2109,0.2147,0.2167,0.2208,0.2219,0.2218,0.2258,0.2248,0.2279,0.2286,0.2286,0.2385,0.2278,0.2406,0.2418,0.243,0.2607,0.2636,0.2291,0.229,0.229,0.229,0,0.2,0.2016,0.2034,0.2099,0.2124,0.2157,0.2194,0.2216,0.2229,0.2253,0.2285,0.229,0.2324,0.2318,0.2306,0.2377,0.2442,0.2402,0.2393,0.2447,0.2631,0.2661,0.2294,0.2293,0.2292,0.2292,0,0,0.2009,0.2059,0.2068,0.209,0.2145,0.2175,0.2207,0.2248,0.2283,0.2306,0.2362,0.2352,0.2371,0.2377,0.2378,0.243,0.2608,0.2451,0.2455,0.2631,0.291,0.2906,0.294,0.2604,0.2608,0.261,0.3035,0,0.2046,0.2107,0.2127,0.2174,0.2209,0.2228,0.2258,0.2293,0.2324,0.2386,0.2393,0.2448,0.2394,0.2435,0.2477,0.2572,0.2677,0.2502,0.2824,0.2835,0.2827,0.2968,0.282,0.3178,0.3064,0.3069,0.3073,0,0.2121,0.214,0.2183,0.221,0.2228,0.226,0.2313,0.2347,0.2418,0.2451,0.2503,0.2539,0.2627,0.2571,0.2787,0.2692,0.2807,0.2872,0.289,0.288,0.2883,0.3088,0.3237,0.3099,0.312,0.3116,0.3113,0,0.2142,0.2188,0.2206,0.2223,0.2262,0.2283,0.2311,0.237,0.2427,0.2521,0.2612,0.2685,0.2803,0.29,0.3039,0.2948,0.3307,0.3208,0.333,0.3337,0.3264,0.3255,0.3306,0.3381,0.338,0.3379,0.3378,0,0.2186,0.2206,0.2219,0.2234,0.229,0.2302,0.2376,0.242,0.2515,0.2627,0.2665,0.2808,0.289,0.3091,0.3154,0.3381,0.3434,0.3381,0.344,0.3281,0.3268,0.3182,0.3086,0.3395,0.3391,0.3388,0.3385,0,0.2238,0.2219,0.2273,0.2298,0.2307,0.2367,0.2448,0.2515,0.2593,0.2763,0.2821,0.2995,0.3243,0.3362,0.3592,0.3588,0.3654,0.3818,0.3665,0.3692,0.3565,0.3477,0.3535,0.3438,0.401,0.4013,0.4014,0,0.2279,0.2305,0.235,0.2381,0.2399,0.2463,0.2514,0.2569,0.2658,0.2889,0.3001,0.3274,0.3436,0.3788,0.3853,0.4036,0.3839,0.3994,0.3722,0.3581,0.3529,0.3359,0.3258,0.3709,0.3708,0.3708,0.3707,0,0.2383,0.2395,0.2418,0.2476,0.2525,0.2581,0.2657,0.2723,0.2825,0.2972,0.318,0.3313,0.3654,0.3745,0.3978,0.4037,0.3746,0.3985,0.3863,0.3321,0.3117,0.3044,0.3471,0.3702,0.3702,0.3703,0.3703,0.3703,0.2469,0.2507,0.2511,0.2565,0.2618,0.2641,0.2654,0.2744,0.2845,0.3006,0.3224,0.3384,0.3571,0.3833,0.3884,0.3825,0.3778,0.3667,0.3606,0.3476,0.3231,0.3679,0.3921,0.3922,0.3924,0.3925,0.3926,0,0.2526,0.2518,0.259,0.2593,0.2629,0.2643,0.27,0.2685,0.2748,0.2981,0.3129,0.3304,0.3407,0.3517,0.3553,0.3437,0.3256,0.3339,0.3023,0.2964,0.3414,0.3237,0.3306,0.3306,0.3307,0.3307,0.3307,0.3307,0.2527,0.2539,0.254,0.255,0.2565,0.2524,0.2514,0.2526,0.2628,0.2739,0.2848,0.2996,0.3152,0.3241,0.3149,0.3072,0.2796,0.2718,0.2705,0.2947,0.2969,0.299,0.28,0.2776,0.2776,0.2125,0.212,0.2116]},{"header":{"parameterUnit":"m.s-1","parameterCategory":2,"la1":30.2991,"la2":30.254,"lo1":-89.0895,"lo2":-89.0444,"dy":0.0017,"dx":0.0017,"nx":28,"ny":28,"refTime":"2023-09-10T21:00:00:Z","depth":"0","parameterNumber":3,"parameterNumberName":"V-component_of_CURRENTS"},"data":[0,0,0,0,0,0,0,0,0,0,0,0,0,0,0,0,0,0,0,0,0,0,0,0,0,0,0,0,0,0,0,0,0,0,0,0,0,0,0,0,0,0,0,0,0,0,0,0,0,0,0,0,0,0,0,0,0,0,-0.0318,-0.0318,0,-0.034,-0.034,-0.034,-0.0351,-0.0351,-0.0351,-0.035,-0.0403,-0.0404,-0.0406,0,0,0,0,0,0,0,0,0,0,0,0,0,-0.0311,-0.0311,-0.0318,-0.0318,-0.0318,-0.034,-0.034,-0.034,-0.0351,-0.0351,-0.035,-0.035,-0.0402,-0.0404,-0.0406,0,0,0,0,0,0,0,0,0,0,0,0,0,-0.0322,-0.0311,-0.0318,-0.0325,-0.0326,-0.034,-0.034,-0.0341,-0.0351,-0.0351,-0.035,-0.035,-0.0402,-0.0404,-0.0406,-0.0423,0,0,-0.0413,-0.0414,0,0,0,0,0,0,0,0,-0.0322,-0.0323,-0.0324,-0.0325,-0.0326,-0.0341,-0.0357,-0.0369,-0.0351,-0.0342,-0.035,-0.035,-0.0385,-0.0388,-0.0394,-0.0425,-0.0427,-0.0413,-0.0414,-0.0415,-0.0416,0,0,0,0,0,0,0,-0.0321,-0.0322,-0.0327,-0.0324,-0.0325,-0.0336,-0.0338,-0.0359,-0.0365,-0.0343,-0.0344,-0.0345,-0.0385,-0.0391,-0.0395,-0.0428,-0.0413,-0.0415,-0.0416,-0.0417,-0.0503,-0.0503,0,0,0,0,0,0,-0.0315,-0.0321,-0.0327,-0.0328,-0.0322,-0.0336,-0.0338,-0.0337,-0.0364,-0.0368,-0.0345,-0.0345,-0.0388,-0.0392,-0.0397,-0.0422,-0.0415,-0.0417,-0.0419,-0.0502,-0.0503,-0.0504,0,0,0,0,0,0,-0.0315,-0.0315,-0.0326,-0.0324,-0.0326,-0.0336,-0.0336,-0.0338,-0.0343,-0.0365,-0.0369,-0.0348,-0.0388,-0.0394,-0.0421,-0.0424,-0.0418,-0.042,-0.0501,-0.0502,-0.0503,-0.0471,0,0,0,0,0,0,-0.0314,-0.0315,-0.0311,-0.0324,-0.0326,-0.0329,-0.0336,-0.0338,-0.0343,-0.0344,-0.0369,-0.0374,-0.0388,-0.0418,-0.0424,-0.0427,-0.0422,-0.0499,-0.0501,-0.0503,-0.047,-0.0471,-0.0471,0,0,0,0,0,-0.0314,-0.0297,-0.0311,-0.0312,-0.0321,-0.0328,-0.033,-0.0338,-0.0344,-0.0343,-0.0368,-0.0373,-0.0433,-0.042,-0.0427,-0.0431,-0.0498,-0.0501,-0.0503,-0.047,-0.0471,-0.0471,0,0,0,0,0,0,-0.0274,-0.0297,-0.0312,-0.0299,-0.0316,-0.0329,-0.0322,-0.0338,-0.0356,-0.0356,-0.0383,-0.0389,-0.0417,-0.0433,-0.0419,-0.0464,-0.0468,-0.0471,-0.0441,-0.0442,-0.0442,-0.0383,-0.0424,0,0,0,0,0,-0.027,-0.027,-0.0295,-0.0282,-0.0291,-0.0312,-0.0315,-0.0325,-0.0343,-0.035,-0.0373,-0.0402,-0.0432,-0.0443,-0.0471,-0.0491,-0.0454,-0.0501,-0.0501,-0.0501,-0.046,-0.0436,-0.0429,-0.0511,-0.0511,-0.0511,0,0,-0.0246,-0.026,-0.0257,-0.0276,-0.0286,-0.0293,-0.0313,-0.0314,-0.0318,-0.0354,-0.0366,-0.0404,-0.044,-0.0465,-0.0479,-0.0476,-0.0457,-0.0503,-0.0503,-0.0461,-0.0437,-0.0429,-0.0421,-0.0512,-0.0512,-0.0512,0,0,-0.0201,-0.0217,-0.0209,-0.0228,-0.025,-0.0268,-0.0271,-0.0296,-0.0305,-0.0331,-0.0362,-0.0392,-0.0439,-0.0457,-0.0475,-0.0493,-0.0463,-0.0518,-0.0462,-0.0441,-0.0433,-0.0425,-0.0346,-0.0332,-0.0512,-0.0512,-0.0512,0,-0.0169,-0.0171,-0.0204,-0.0208,-0.0214,-0.0257,-0.0251,-0.027,-0.0303,-0.0299,-0.0329,-0.0379,-0.0427,-0.0433,-0.0451,-0.0488,-0.0449,-0.0457,-0.0436,-0.0428,-0.042,-0.0342,-0.0326,-0.0511,-0.0511,-0.0511,-0.0511,0,-0.0132,-0.0137,-0.0129,-0.0156,-0.0169,-0.0168,-0.0206,-0.0216,-0.0243,-0.0258,-0.0272,-0.0332,-0.0342,-0.0391,-0.043,-0.041,-0.0389,-0.0441,-0.0423,-0.0409,-0.0329,-0.0313,-0.0509,-0.051,-0.051,-0.051,0,0,-0.0044,-0.0093,-0.0091,-0.0092,-0.0143,-0.0135,-0.0151,-0.0159,-0.012,-0.0187,-0.0131,-0.0236,-0.0244,-0.0264,-0.0317,-0.032,-0.026,-0.0353,-0.0353,-0.0249,-0.0155,-0.0148,-0.0129,-0.0307,-0.0305,-0.0303,-0.011,0,-0.0002,0.0005,-0.0037,-0.002,-0.0018,-0.0065,-0.0055,-0.0068,-0.0078,-0.0036,-0.0099,-0.0072,-0.0202,-0.0179,-0.0214,-0.0229,-0.0219,-0.0302,-0.0204,-0.0199,-0.0175,-0.0112,-0.0172,-0.0007,-0.0095,-0.0092,-0.009,0,0.0048,0.0044,0.0065,0.0063,0.0066,0.0078,0.0114,0.0118,0.0139,0.0144,0.0141,0.0117,0.0119,0.0005,-0.0,-0.0042,-0.0088,-0.0122,-0.0117,-0.0101,-0.0163,-0.0043,0.0026,-0.0192,-0.0065,-0.0067,-0.0069,0,0.0134,0.0123,0.015,0.0142,0.0131,0.0159,0.0169,0.0187,0.025,0.0298,0.0381,0.0335,0.0398,0.0301,0.0217,0.0126,0.024,0.0105,0.0074,0.0076,0.0054,0.005,-0.0052,0.0106,0.0105,0.0105,0.0104,0,0.0198,0.0224,0.0205,0.0221,0.031,0.0263,0.0381,0.0387,0.0463,0.0598,0.0511,0.0639,0.0475,0.0503,0.0348,0.0313,0.0352,0.0136,0.0131,0.0063,0.0057,-0.0112,-0.021,0.0112,0.011,0.0109,0.0108,0,0.0312,0.0271,0.0326,0.0334,0.0354,0.0436,0.0532,0.0634,0.0675,0.0865,0.0909,0.0937,0.097,0.0821,0.0738,0.0549,0.0372,0.043,0.0395,0.0379,0.0074,-0.0018,0.0004,-0.007,0.0421,0.0423,0.0424,0,0.0381,0.0414,0.0452,0.0512,0.0533,0.0633,0.0725,0.0756,0.0878,0.1066,0.1195,0.1281,0.1358,0.1258,0.0953,0.075,0.0511,0.0539,0.0306,0.0101,-0.0007,-0.0072,-0.0143,0.0307,0.0308,0.0308,0.0308,0,0.0546,0.0555,0.06,0.0703,0.08,0.0919,0.1044,0.1159,0.125,0.1406,0.1625,0.1705,0.1608,0.1387,0.1093,0.0884,0.0385,0.0533,0.0313,-0.0085,-0.015,-0.0238,0.0175,0.0309,0.0308,0.0308,0.0308,0.0308,0.0702,0.0768,0.081,0.0917,0.1031,0.1179,0.1284,0.1431,0.1625,0.1842,0.1919,0.2051,0.1694,0.1271,0.1006,0.0404,0.0426,0.0133,0.0058,0.0026,-0.0119,0.0334,0.0442,0.0443,0.0443,0.0444,0.0444,0,0.0864,0.0902,0.102,0.1121,0.126,0.1278,0.148,0.1585,0.1802,0.2028,0.2186,0.2062,0.1616,0.1124,0.035,-0.0043,-0.0207,-0.026,-0.0427,-0.0466,-0.0076,-0.0167,-0.018,-0.018,-0.018,-0.018,-0.0179,-0.0179,0.0949,0.1047,0.107,0.1283,0.1371,0.1537,0.1639,0.1806,0.1965,0.2179,0.224,0.2269,0.1834,0.0553,-0.0353,-0.0549,-0.0802,-0.0819,-0.0905,-0.0751,-0.0724,-0.0699,-0.0814,-0.0962,-0.0963,-0.1318,-0.1322,-0.1325]}],[{"header":{"parameterUnit":"m.s-1","parameterCategory":2,"la1":30.2991,"la2":30.254,"lo1":-89.0895,"lo2":-89.0444,"dy":0.0017,"dx":0.0017,"nx":28,"ny":28,"refTime":"2023-09-10T21:00:00:Z","depth":"2","parameterNumber":2,"parameterNumberName":"U-component_of_CURRENTS"},"data":[0,0,0,0,0,0,0,0,0,0,0,0,0,0,0,0,0,0,0,0,0,0,0,0,0,0,0,0,0,0,0,0,0,0,0,0,0,0,0,0,0,0,0,0,0,0,0,0,0,0,0,0,0,0,0,0,0,0,0.2085,0.2085,0,0.2108,0.2108,0.2109,0.2167,0.2168,0.2169,0.217,0.2219,0.2219,0.2219,0,0,0,0,0,0,0,0,0,0,0,0,0,0.2058,0.2059,0.2085,0.2085,0.2085,0.2108,0.2108,0.2109,0.2167,0.2168,0.217,0.2171,0.2219,0.2219,0.222,0,0,0,0,0,0,0,0,0,0,0,0,0,0.2077,0.2059,0.2085,0.2115,0.2118,0.2108,0.2108,0.2109,0.2167,0.2168,0.217,0.2171,0.2218,0.2219,0.222,0.2194,0,0,0.2221,0.2222,0,0,0,0,0,0,0,0,0.2076,0.2078,0.2111,0.2113,0.2116,0.2134,0.2116,0.2138,0.2167,0.2151,0.217,0.2172,0.219,0.2193,0.2198,0.2196,0.2198,0.2221,0.2222,0.2222,0.2222,0,0,0,0,0,0,0,0.2075,0.2077,0.2097,0.211,0.2113,0.2115,0.212,0.2121,0.2165,0.2153,0.2156,0.2154,0.2192,0.2197,0.2199,0.2199,0.2221,0.2222,0.2222,0.2222,0.2268,0.2269,0,0,0,0,0,0,0.2066,0.2076,0.2096,0.2098,0.2096,0.2114,0.212,0.2129,0.2164,0.217,0.2152,0.2156,0.2195,0.2198,0.2201,0.2297,0.2222,0.2223,0.2223,0.2267,0.2268,0.2269,0,0,0,0,0,0,0.2066,0.2068,0.2096,0.2084,0.2088,0.2113,0.2123,0.2128,0.2156,0.2163,0.2171,0.2176,0.2196,0.22,0.2215,0.2294,0.2223,0.2223,0.2266,0.2267,0.2269,0.2409,0,0,0,0,0,0,0.2065,0.2068,0.209,0.2084,0.2088,0.2116,0.2121,0.2128,0.2149,0.2155,0.2185,0.219,0.2198,0.2214,0.2216,0.2294,0.2224,0.2265,0.2267,0.2268,0.2403,0.2414,0.2424,0,0,0,0,0,0.2064,0.2068,0.2091,0.2094,0.2112,0.2117,0.2121,0.2144,0.2149,0.2172,0.2178,0.2191,0.2227,0.2214,0.2216,0.2297,0.2264,0.2266,0.2268,0.2398,0.2412,0.2424,0,0,0,0,0,0,0.2069,0.2074,0.2099,0.2109,0.213,0.2127,0.2143,0.215,0.2172,0.2185,0.2186,0.2192,0.2244,0.2225,0.2211,0.2308,0.2253,0.2256,0.2352,0.2365,0.2375,0.2333,0.2224,0,0,0,0,0,0.2079,0.2083,0.2101,0.2111,0.2127,0.214,0.2149,0.2168,0.2174,0.2187,0.2212,0.2227,0.2247,0.2268,0.228,0.2318,0.2307,0.237,0.2381,0.2391,0.2354,0.2382,0.2393,0.2275,0.2275,0.2275,0,0,0.2085,0.2084,0.2092,0.2113,0.2131,0.2168,0.2152,0.2174,0.2219,0.2186,0.226,0.2265,0.2259,0.2319,0.2342,0.2321,0.2435,0.2393,0.2402,0.2359,0.2385,0.2397,0.2407,0.2277,0.2276,0.2276,0,0,0.2082,0.2103,0.2116,0.2139,0.217,0.2189,0.22,0.2231,0.2268,0.2313,0.2313,0.2343,0.2382,0.2402,0.241,0.2471,0.2486,0.25,0.2535,0.2567,0.2577,0.2585,0.2664,0.2678,0.2513,0.2514,0.2514,0,0.2089,0.2115,0.2122,0.2148,0.2183,0.2204,0.2252,0.2283,0.2321,0.2344,0.2358,0.2402,0.242,0.2462,0.2497,0.2503,0.2525,0.2501,0.2584,0.2591,0.2597,0.2675,0.2689,0.2521,0.252,0.2519,0.2518,0,0.2108,0.2144,0.215,0.2205,0.2249,0.2281,0.2339,0.2386,0.243,0.2455,0.2513,0.2524,0.2535,0.2582,0.2561,0.2623,0.2633,0.2597,0.2559,0.2618,0.2697,0.2709,0.2531,0.2528,0.2526,0.2524,0,0,0.2076,0.215,0.2159,0.2204,0.2287,0.2315,0.2402,0.2469,0.2495,0.2565,0.2603,0.2657,0.2639,0.2638,0.2641,0.2675,0.2787,0.2658,0.2657,0.2751,0.2898,0.2805,0.2809,0.2774,0.2775,0.2776,0.2965,0,0.2096,0.2161,0.2203,0.229,0.2341,0.2402,0.2463,0.2528,0.2581,0.2623,0.2651,0.2683,0.2671,0.2682,0.2715,0.2754,0.281,0.274,0.2808,0.2811,0.2732,0.2814,0.2589,0.2726,0.2976,0.2978,0.2979,0,0.2133,0.2154,0.2249,0.2331,0.2359,0.2408,0.2505,0.2559,0.2616,0.2652,0.2682,0.2695,0.2758,0.2727,0.2834,0.2794,0.284,0.2877,0.2885,0.2733,0.2735,0.2688,0.2737,0.2998,0.2997,0.2995,0.2994,0,0.2139,0.2209,0.2285,0.2317,0.2398,0.244,0.2484,0.2557,0.2608,0.2656,0.2706,0.2743,0.2802,0.2837,0.293,0.2887,0.3055,0.3008,0.2977,0.2975,0.2753,0.2727,0.3065,0.3065,0.3064,0.3064,0.3063,0,0.2172,0.2215,0.2274,0.2303,0.2348,0.2421,0.2477,0.2516,0.2585,0.2656,0.2696,0.277,0.2829,0.2937,0.2968,0.303,0.3098,0.2983,0.3001,0.2803,0.278,0.2957,0.2941,0.3071,0.3069,0.3068,0.3067,0,0.218,0.2236,0.2285,0.234,0.236,0.2385,0.2475,0.2504,0.2578,0.2679,0.271,0.2837,0.2964,0.3043,0.3151,0.3103,0.3154,0.3159,0.2947,0.2931,0.3049,0.3039,0.3119,0.3117,0.3115,0.3113,0.3112,0,0.2199,0.2226,0.2287,0.2306,0.2323,0.2368,0.2403,0.2485,0.2544,0.2732,0.2789,0.2946,0.301,0.3139,0.3112,0.3147,0.3205,0.2935,0.276,0.3036,0.3048,0.304,0.3033,0.2583,0.2577,0.2573,0.2569,0,0.2168,0.2193,0.2216,0.2255,0.2295,0.2342,0.2407,0.2458,0.2588,0.2652,0.2778,0.2834,0.2983,0.2882,0.2927,0.2908,0.2889,0.2839,0.3206,0.2572,0.2536,0.2545,0.2555,0.2529,0.2533,0.2536,0.2538,0.254,0.2117,0.2118,0.2154,0.2187,0.2239,0.229,0.2298,0.2372,0.2419,0.248,0.2634,0.2619,0.2682,0.2581,0.2548,0.2531,0.2696,0.2548,0.2561,0.2578,0.245,0.2408,0.2359,0.2362,0.2365,0.2367,0.2369,0,0.2027,0.2048,0.2082,0.2116,0.2137,0.2207,0.2281,0.2231,0.2223,0.2296,0.2297,0.2112,0.2069,0.2179,0.208,0.2062,0.2027,0.1984,0.1922,0.1965,0.2002,0.1841,0.1591,0.1588,0.1586,0.1583,0,0,0.197,0.1962,0.1989,0.1992,0.2034,0.2026,0.2048,0.1973,0.1971,0.1827,0.1796,0.1896,0.2064,0.1765,0.1752,0.1661,0.1788,0.1598,0.2227,0.2195,0.2228,0.2341,0.2143,0,0,0,0,0]},{"header":{"parameterUnit":"m.s-1","parameterCategory":2,"la1":30.2991,"la2":30.254,"lo1":-89.0895,"lo2":-89.0444,"dy":0.0017,"dx":0.0017,"nx":28,"ny":28,"refTime":"2023-09-10T21:00:00:Z","depth":"2","parameterNumber":3,"parameterNumberName":"V-component_of_CURRENTS"},"data":[0,0,0,0,0,0,0,0,0,0,0,0,0,0,0,0,0,0,0,0,0,0,0,0,0,0,0,0,0,0,0,0,0,0,0,0,0,0,0,0,0,0,0,0,0,0,0,0,0,0,0,0,0,0,0,0,0,0,-0.0078,-0.0078,0,-0.0089,-0.0089,-0.009,-0.0195,-0.0197,-0.0199,-0.0201,-0.033,-0.0332,-0.0333,0,0,0,0,0,0,0,0,0,0,0,0,0,-0.0066,-0.0066,-0.0078,-0.0078,-0.0078,-0.0089,-0.0089,-0.009,-0.0194,-0.0197,-0.02,-0.0202,-0.033,-0.0332,-0.0333,0,0,0,0,0,0,0,0,0,0,0,0,0,-0.0077,-0.0066,-0.0078,-0.0128,-0.0132,-0.0088,-0.0089,-0.009,-0.0194,-0.0197,-0.02,-0.0203,-0.0329,-0.0331,-0.0333,-0.0279,0,0,-0.034,-0.034,0,0,0,0,0,0,0,0,-0.0077,-0.0078,-0.0121,-0.0125,-0.0129,-0.014,-0.0132,-0.0157,-0.0193,-0.0175,-0.0201,-0.0205,-0.0272,-0.0279,-0.0278,-0.0285,-0.029,-0.034,-0.0341,-0.0342,-0.0342,0,0,0,0,0,0,0,-0.0076,-0.0078,-0.0087,-0.012,-0.0125,-0.0121,-0.0128,-0.0136,-0.021,-0.0177,-0.0183,-0.0176,-0.0277,-0.0276,-0.0282,-0.0292,-0.034,-0.0342,-0.0343,-0.0344,-0.0361,-0.036,0,0,0,0,0,0,-0.0066,-0.0077,-0.0086,-0.0087,-0.0106,-0.0118,-0.0126,-0.0137,-0.0208,-0.022,-0.0174,-0.0181,-0.0271,-0.028,-0.0287,-0.0362,-0.0342,-0.0344,-0.0345,-0.0362,-0.0361,-0.036,0,0,0,0,0,0,-0.0066,-0.0068,-0.0086,-0.0078,-0.008,-0.0115,-0.0126,-0.0135,-0.0157,-0.0203,-0.0219,-0.0189,-0.0274,-0.0285,-0.0305,-0.0363,-0.0345,-0.0347,-0.0363,-0.0362,-0.0361,-0.0424,0,0,0,0,0,0,-0.0066,-0.0068,-0.0083,-0.0078,-0.0079,-0.0072,-0.0123,-0.0133,-0.0144,-0.0155,-0.022,-0.0235,-0.0277,-0.0302,-0.0307,-0.0365,-0.0348,-0.0364,-0.0362,-0.0361,-0.0423,-0.0426,-0.0428,0,0,0,0,0,-0.0066,-0.0047,-0.0084,-0.0085,-0.0096,-0.0071,-0.0072,-0.011,-0.0141,-0.0144,-0.0185,-0.0234,-0.0298,-0.0302,-0.0309,-0.0369,-0.0364,-0.0363,-0.0361,-0.0422,-0.0425,-0.0428,0,0,0,0,0,0,-0.0058,-0.0055,-0.0096,-0.0086,-0.0093,-0.0088,-0.0082,-0.0105,-0.0134,-0.0155,-0.0209,-0.0225,-0.0272,-0.0279,-0.0282,-0.0361,-0.0344,-0.0344,-0.0389,-0.0391,-0.0394,-0.0355,-0.035,0,0,0,0,0,-0.006,-0.0043,-0.0058,-0.0051,-0.0054,-0.0073,-0.0071,-0.0096,-0.011,-0.0129,-0.018,-0.0223,-0.026,-0.0293,-0.0317,-0.0344,-0.0334,-0.0385,-0.0388,-0.039,-0.0357,-0.0383,-0.0386,-0.0355,-0.0355,-0.0355,0,0,-0.0057,-0.0048,-0.0046,-0.0047,-0.0056,-0.0051,-0.0082,-0.0073,-0.0096,-0.0134,-0.0188,-0.0227,-0.026,-0.0312,-0.0335,-0.0337,-0.0394,-0.0388,-0.0391,-0.0355,-0.0382,-0.0386,-0.0389,-0.0353,-0.0354,-0.0354,0,0,-0.0008,-0.0036,-0.0009,-0.0009,-0.0012,-0.0027,-0.0026,-0.0046,-0.0094,-0.0125,-0.0173,-0.0222,-0.028,-0.0326,-0.0352,-0.0359,-0.0396,-0.039,-0.0393,-0.0421,-0.0424,-0.0427,-0.0431,-0.0434,-0.0405,-0.0405,-0.0405,0,-0.0005,0.0009,0.0003,0.0028,0.0017,-0.0017,-0.0015,-0.0041,-0.0077,-0.011,-0.0154,-0.0234,-0.0286,-0.0333,-0.0361,-0.0373,-0.0379,-0.0398,-0.0428,-0.043,-0.0432,-0.0435,-0.0437,-0.0408,-0.0408,-0.0407,-0.0407,0,0.005,0.0055,0.008,0.008,0.0066,0.0078,0.0028,-0.0005,-0.0073,-0.0111,-0.0185,-0.0245,-0.029,-0.0342,-0.0367,-0.0413,-0.0411,-0.0426,-0.0432,-0.044,-0.0442,-0.0443,-0.0412,-0.0411,-0.041,-0.041,0,0,0.0077,0.011,0.0113,0.0102,0.0085,0.0081,0.0043,-0.0005,-0.0024,-0.0111,-0.0148,-0.0251,-0.0283,-0.0306,-0.036,-0.0404,-0.0457,-0.043,-0.043,-0.045,-0.0506,-0.0502,-0.0503,-0.0497,-0.0497,-0.0497,-0.0509,0,0.0109,0.0158,0.0154,0.0158,0.0156,0.0108,0.0082,0.0031,-0.0032,-0.0068,-0.0159,-0.0196,-0.0271,-0.03,-0.0362,-0.041,-0.0459,-0.045,-0.0477,-0.0476,-0.0487,-0.0504,-0.0463,-0.0469,-0.051,-0.051,-0.051,0,0.0135,0.0169,0.0181,0.0173,0.0165,0.016,0.0095,0.0074,0.0026,-0.002,-0.0075,-0.0122,-0.0186,-0.025,-0.0351,-0.0346,-0.0423,-0.0476,-0.0478,-0.0441,-0.0473,-0.0462,-0.0469,-0.0512,-0.0512,-0.0511,-0.0511,0,0.012,0.0167,0.0167,0.0168,0.0168,0.0145,0.0131,0.0084,0.0079,0.0036,0.0045,-0.005,-0.0071,-0.0183,-0.0299,-0.033,-0.0398,-0.0452,-0.0517,-0.0517,-0.0462,-0.0457,-0.0524,-0.0524,-0.0524,-0.0524,-0.0524,0,0.0131,0.0135,0.017,0.0173,0.0185,0.0158,0.016,0.014,0.0142,0.0182,0.0089,0.0112,-0.0058,-0.0121,-0.0255,-0.0369,-0.0364,-0.0498,-0.052,-0.0483,-0.048,-0.0493,-0.0489,-0.0524,-0.0524,-0.0524,-0.0524,0,0.0103,0.0128,0.0147,0.0168,0.0178,0.018,0.0216,0.0239,0.0237,0.0294,0.0297,0.0242,0.0168,0.0007,-0.015,-0.0284,-0.0409,-0.0457,-0.0389,-0.0404,-0.0523,-0.0522,-0.0532,-0.0531,-0.0531,-0.0531,-0.0531,0,0.0087,0.0098,0.0149,0.018,0.0195,0.0221,0.0258,0.0277,0.0327,0.0392,0.0438,0.0389,0.0379,0.0157,-0.0086,-0.0299,-0.0361,-0.0416,-0.0479,-0.0503,-0.0524,-0.0523,-0.0522,-0.0435,-0.0435,-0.0434,-0.0433,0,0.0074,0.0093,0.0126,0.0204,0.0249,0.0318,0.0379,0.045,0.0508,0.0589,0.0692,0.0697,0.0485,0.0285,-0.0025,-0.0181,-0.0383,-0.041,-0.0445,-0.0442,-0.0415,-0.0434,-0.0436,-0.0427,-0.0428,-0.0428,-0.0429,-0.0429,0.0073,0.0104,0.0167,0.024,0.0308,0.0424,0.0516,0.0618,0.0755,0.089,0.0861,0.0876,0.0616,0.0233,-0.0016,-0.0304,-0.0328,-0.0444,-0.0445,-0.0448,-0.0436,-0.0411,-0.0419,-0.042,-0.042,-0.0421,-0.0421,0,0.0099,0.0147,0.0205,0.0321,0.0425,0.0453,0.0614,0.0732,0.0943,0.1005,0.1076,0.085,0.0622,0.0329,-0.008,-0.0334,-0.0366,-0.0413,-0.0398,-0.0401,-0.0405,-0.0392,-0.0364,-0.0365,-0.0365,-0.0365,0,0,0.0123,0.0195,0.0238,0.0419,0.0507,0.0688,0.0807,0.098,0.1071,0.1152,0.1142,0.1039,0.0707,0.0419,0.0086,-0.013,-0.021,-0.0177,-0.0197,-0.0143,-0.0144,-0.0399,-0.038,0,0,0,0,0]}],[{"header":{"parameterUnit":"m.s-1","parameterCategory":2,"la1":30.2991,"la2":30.254,"lo1":-89.0895,"lo2":-89.0444,"dy":0.0017,"dx":0.0017,"nx":28,"ny":28,"refTime":"2023-09-10T21:00:00:Z","depth":"4","parameterNumber":2,"parameterNumberName":"U-component_of_CURRENTS"},"data":[0,0,0,0,0,0,0,0,0,0,0,0,0,0,0,0,0,0,0,0,0,0,0,0,0,0,0,0,0,0,0,0,0,0,0,0,0,0,0,0,0,0,0,0,0,0,0,0,0,0,0,0,0,0,0,0,0,0,0.101,0.1011,0,0.1036,0.1036,0.1036,0.106,0.106,0.1061,0.1061,0.1117,0.1118,0.1118,0,0,0,0,0,0,0,0,0,0,0,0,0,0.0936,0.0937,0.101,0.1011,0.1011,0.1036,0.1036,0.1036,0.1059,0.106,0.1061,0.1062,0.1117,0.1118,0.1119,0,0,0,0,0,0,0,0,0,0,0,0,0,0.0962,0.0938,0.101,0.1029,0.1031,0.1036,0.1036,0.1036,0.1059,0.106,0.1061,0.1062,0.1116,0.1117,0.1119,0.1107,0,0,0.1123,0.1123,0,0,0,0,0,0,0,0,0.0961,0.0964,0.1026,0.1028,0.1031,0.1049,0.1031,0.1063,0.1059,0.1044,0.1062,0.1063,0.1099,0.1102,0.1098,0.1109,0.1111,0.1123,0.1123,0.1124,0.1124,0,0,0,0,0,0,0,0.0959,0.0963,0.1016,0.1026,0.1029,0.1022,0.1027,0.1036,0.1063,0.1045,0.1048,0.1058,0.11,0.1097,0.11,0.1112,0.1123,0.1124,0.1125,0.1125,0.1217,0.1218,0,0,0,0,0,0,0.0966,0.0962,0.1015,0.1017,0.1002,0.1023,0.1028,0.1039,0.1062,0.1068,0.1057,0.1059,0.1094,0.1098,0.1102,0.1175,0.1124,0.1125,0.1126,0.1215,0.1217,0.1219,0,0,0,0,0,0,0.0964,0.097,0.1014,0.0993,0.0999,0.1024,0.1035,0.1039,0.1064,0.1071,0.1077,0.1082,0.1095,0.11,0.1143,0.1175,0.1126,0.1127,0.1213,0.1216,0.1218,0.1268,0,0,0,0,0,0,0.0962,0.0969,0.0985,0.0994,0.1001,0.1036,0.1035,0.1039,0.1069,0.1072,0.1094,0.1099,0.1096,0.1141,0.1144,0.1176,0.1128,0.1211,0.1214,0.1217,0.1264,0.1272,0.1278,0,0,0,0,0,0.0959,0.0974,0.0986,0.0993,0.102,0.1037,0.104,0.1057,0.1069,0.1083,0.1107,0.11,0.1163,0.1143,0.1146,0.1179,0.121,0.1213,0.1217,0.1261,0.127,0.1278,0,0,0,0,0,0,0.0949,0.0979,0.0991,0.1016,0.1036,0.1043,0.1061,0.1072,0.1099,0.1115,0.1117,0.1123,0.1173,0.1171,0.1149,0.1216,0.1187,0.1191,0.1219,0.1227,0.1234,0.1219,0.1129,0,0,0,0,0,0.0955,0.0979,0.1001,0.1024,0.1037,0.1054,0.1067,0.1083,0.1105,0.1118,0.1134,0.1159,0.1185,0.1203,0.122,0.1254,0.1256,0.128,0.1287,0.1293,0.1284,0.1336,0.1347,0.1231,0.1231,0.1231,0,0,0.0961,0.0979,0.0996,0.1025,0.1042,0.1059,0.1064,0.1097,0.1119,0.112,0.1162,0.1184,0.12,0.1242,0.1264,0.1248,0.1327,0.1298,0.1302,0.129,0.1341,0.1353,0.1363,0.1234,0.1233,0.1233,0,0,0.0972,0.1,0.102,0.1041,0.1078,0.1083,0.1101,0.1127,0.115,0.119,0.1204,0.1242,0.1278,0.1292,0.1305,0.136,0.1363,0.1381,0.1404,0.1456,0.1466,0.1474,0.1487,0.1496,0.1385,0.1385,0.1385,0,0.098,0.1002,0.1028,0.1051,0.1069,0.1098,0.1117,0.1141,0.1181,0.121,0.1215,0.1287,0.1295,0.1348,0.1366,0.1374,0.14,0.1369,0.1465,0.1473,0.1481,0.1492,0.1502,0.1388,0.1387,0.1387,0.1387,0,0.0998,0.1024,0.1039,0.1074,0.1095,0.1122,0.1156,0.1191,0.1222,0.1252,0.1324,0.1341,0.139,0.14,0.1396,0.1464,0.1463,0.1468,0.144,0.1496,0.1504,0.1513,0.1392,0.1391,0.139,0.1389,0,0,0.0988,0.1041,0.1048,0.1068,0.1112,0.1129,0.1175,0.1221,0.1273,0.1317,0.1379,0.1416,0.1452,0.1467,0.1484,0.151,0.1576,0.1517,0.1518,0.1522,0.1682,0.1585,0.1584,0.1619,0.1621,0.1622,0.1663,0,0.0993,0.1025,0.1054,0.1091,0.1105,0.1153,0.1195,0.1251,0.1306,0.1376,0.1419,0.1488,0.1476,0.1519,0.155,0.1581,0.1604,0.1563,0.1633,0.1633,0.1535,0.1593,0.1629,0.167,0.1672,0.1674,0.1675,0,0.0987,0.1011,0.1042,0.11,0.1116,0.1151,0.1229,0.1284,0.1388,0.1439,0.1519,0.1564,0.1628,0.1606,0.1683,0.1671,0.1678,0.1679,0.1682,0.1575,0.1552,0.1605,0.1691,0.1689,0.1688,0.1687,0.1686,0,0.0941,0.0997,0.1019,0.1041,0.1114,0.1156,0.1211,0.131,0.137,0.1502,0.1555,0.1649,0.1705,0.1745,0.1758,0.1746,0.182,0.1808,0.1714,0.1707,0.1758,0.1748,0.1846,0.1846,0.1846,0.1846,0.1846,0,0.0909,0.0931,0.1011,0.103,0.1079,0.1154,0.1234,0.1311,0.1429,0.1498,0.1607,0.1655,0.1747,0.1797,0.1797,0.1786,0.1867,0.1717,0.1718,0.1777,0.1769,0.1764,0.1754,0.1847,0.1847,0.1847,0.1846,0,0.0837,0.0893,0.0932,0.1026,0.1059,0.1108,0.1229,0.1287,0.1422,0.1514,0.1559,0.1688,0.1764,0.1818,0.1876,0.1825,0.1826,0.1793,0.1841,0.1844,0.1662,0.1655,0.1699,0.1696,0.1693,0.1691,0.1689,0,0.0794,0.0807,0.0914,0.0937,0.0983,0.1065,0.1117,0.1268,0.1334,0.1503,0.1536,0.1656,0.1721,0.1736,0.1799,0.1815,0.1784,0.1767,0.171,0.1654,0.1652,0.1648,0.1643,0.1685,0.1685,0.1684,0.1683,0,0.0712,0.0769,0.0811,0.0864,0.0924,0.0975,0.1074,0.1114,0.1286,0.14,0.1485,0.1534,0.1613,0.1671,0.1703,0.17,0.1776,0.174,0.1744,0.1691,0.1639,0.1638,0.1636,0.1675,0.1676,0.1677,0.1677,0,0.066,0.0671,0.0743,0.0781,0.0845,0.0882,0.0942,0.103,0.1127,0.1328,0.1339,0.1474,0.1588,0.1609,0.1632,0.1642,0.1609,0.1543,0.1556,0.1567,0.1506,0.1419,0.1392,0,0,0,0,0,0.0603,0.0612,0.0638,0.0697,0.0754,0.0796,0.0908,0.098,0.1142,0.1169,0.1262,0.1331,0.1396,0.1467,0.1452,0.156,0.1604,0.1532,0.153,0.1627,0.1637,0.1578,0,0,0,0,0,0,0.0569,0.0597,0.0617,0.0626,0.0637,0.0704,0.0775,0.0874,0.0918,0.1073,0.1129,0.1234,0.133,0.1388,0.1419,0.1438,0.1407,0.1617,0.1613,0.1621,0.163,0.1638,0.1581,0,0,0,0,0]},{"header":{"parameterUnit":"m.s-1","parameterCategory":2,"la1":30.2991,"la2":30.254,"lo1":-89.0895,"lo2":-89.0444,"dy":0.0017,"dx":0.0017,"nx":28,"ny":28,"refTime":"2023-09-10T21:00:00:Z","depth":"4","parameterNumber":3,"parameterNumberName":"V-component_of_CURRENTS"},"data":[0,0,0,0,0,0,0,0,0,0,0,0,0,0,0,0,0,0,0,0,0,0,0,0,0,0,0,0,0,0,0,0,0,0,0,0,0,0,0,0,0,0,0,0,0,0,0,0,0,0,0,0,0,0,0,0,0,0,0.0209,0.0209,0,0.0199,0.0199,0.0199,0.0189,0.0189,0.0189,0.0188,0.016,0.0159,0.0159,0,0,0,0,0,0,0,0,0,0,0,0,0,0.0223,0.0223,0.0209,0.0209,0.0209,0.0199,0.0199,0.0199,0.0189,0.0189,0.0189,0.0188,0.016,0.0159,0.0159,0,0,0,0,0,0,0,0,0,0,0,0,0,0.0217,0.0223,0.0209,0.0202,0.0201,0.0199,0.0199,0.0199,0.0189,0.0189,0.0189,0.0188,0.016,0.0159,0.0159,0.0161,0,0,0.0156,0.0156,0,0,0,0,0,0,0,0,0.0217,0.0217,0.0203,0.0202,0.0201,0.0194,0.0193,0.0185,0.0189,0.0195,0.0188,0.0188,0.0169,0.0167,0.0168,0.016,0.0159,0.0156,0.0156,0.0155,0.0155,0,0,0,0,0,0,0,0.0218,0.0217,0.0207,0.0203,0.0202,0.02,0.0199,0.0192,0.0185,0.0195,0.0194,0.019,0.0168,0.0169,0.0168,0.0158,0.0156,0.0155,0.0155,0.0155,0.0156,0.0156,0,0,0,0,0,0,0.0217,0.0217,0.0207,0.0206,0.0207,0.02,0.0199,0.0198,0.0185,0.0183,0.0191,0.019,0.0171,0.0169,0.0167,0.0188,0.0155,0.0155,0.0154,0.0155,0.0156,0.0157,0,0,0,0,0,0,0.0217,0.0216,0.0207,0.021,0.0209,0.02,0.0199,0.0198,0.0202,0.0182,0.018,0.0197,0.017,0.0168,0.0168,0.0186,0.0154,0.0153,0.0155,0.0156,0.0156,0.0219,0,0,0,0,0,0,0.0218,0.0216,0.0219,0.021,0.0209,0.0214,0.0199,0.0198,0.02,0.0199,0.0187,0.0183,0.017,0.0169,0.0167,0.0184,0.0153,0.0154,0.0155,0.0156,0.0216,0.0222,0.0226,0,0,0,0,0,0.0218,0.0222,0.0219,0.0218,0.0212,0.0214,0.0214,0.0207,0.0201,0.0209,0.0199,0.0184,0.0174,0.0169,0.0167,0.0184,0.0154,0.0155,0.0156,0.0214,0.022,0.0226,0,0,0,0,0,0,0.0225,0.0221,0.0218,0.0219,0.022,0.0212,0.0217,0.0212,0.0212,0.0212,0.0192,0.0189,0.0195,0.0179,0.0175,0.0186,0.0161,0.0161,0.0205,0.0211,0.0216,0.0209,0.0152,0,0,0,0,0,0.0229,0.0233,0.0229,0.023,0.0233,0.0228,0.0229,0.0226,0.0221,0.0221,0.0213,0.0203,0.0198,0.0196,0.0188,0.0196,0.0146,0.0204,0.0209,0.0214,0.0205,0.0147,0.0146,0.016,0.016,0.016,0,0,0.0229,0.0229,0.023,0.0233,0.0234,0.0247,0.0228,0.0235,0.0249,0.0218,0.0235,0.0221,0.0203,0.0213,0.0214,0.0203,0.0183,0.0215,0.0219,0.0208,0.0148,0.0146,0.0145,0.0161,0.0161,0.0161,0,0,0.024,0.0237,0.025,0.0258,0.0264,0.0262,0.0266,0.0267,0.0273,0.0287,0.0266,0.0261,0.0261,0.0249,0.0243,0.027,0.0211,0.0269,0.0292,0.0236,0.0234,0.0232,0.0163,0.0153,0.0273,0.0273,0.0273,0,0.024,0.0258,0.0254,0.0273,0.0283,0.0272,0.0293,0.0299,0.03,0.0301,0.0302,0.0284,0.0279,0.0272,0.0287,0.0282,0.0229,0.0274,0.0242,0.0239,0.0235,0.0165,0.0154,0.0276,0.0276,0.0276,0.0275,0,0.0267,0.0284,0.0294,0.0316,0.0326,0.0341,0.0348,0.0358,0.0362,0.0359,0.0358,0.0344,0.0326,0.0333,0.0324,0.03,0.0262,0.0255,0.0226,0.0237,0.0162,0.015,0.0281,0.028,0.0279,0.0278,0,0,0.0256,0.0303,0.0308,0.0329,0.0351,0.036,0.0387,0.0398,0.0399,0.0407,0.0399,0.0407,0.038,0.037,0.0349,0.0313,0.0255,0.0277,0.0273,0.0207,0.0109,0.0115,0.0101,0.0236,0.0234,0.0233,0.0066,0,0.0278,0.0326,0.0343,0.0385,0.0409,0.0416,0.0437,0.0444,0.0442,0.043,0.0412,0.0398,0.0399,0.0384,0.035,0.0275,0.0225,0.03,0.0109,0.0103,0.0106,0.0089,0.0228,0.0056,0.0053,0.0051,0.005,0,0.0302,0.033,0.0381,0.0422,0.0432,0.0454,0.0469,0.0487,0.047,0.0463,0.0439,0.0407,0.0363,0.0358,0.0233,0.0275,0.0196,0.0138,0.013,0.0102,0.0086,0.0042,0.0026,0.0028,0.003,0.0031,0.0033,0,0.0298,0.0357,0.0398,0.0414,0.0455,0.0476,0.0496,0.0495,0.0505,0.047,0.0451,0.0392,0.0353,0.0258,0.0162,0.0181,0.0003,0.0011,-0.0065,-0.0067,-0.0051,-0.0046,-0.0097,-0.0096,-0.0096,-0.0096,-0.0095,0,0.0313,0.0346,0.0403,0.042,0.0461,0.0488,0.0511,0.0517,0.0511,0.0511,0.0463,0.0431,0.0324,0.0223,0.0133,-0.0005,-0.0025,-0.0077,-0.011,-0.002,-0.0011,-0.0061,-0.0054,-0.0102,-0.01,-0.0099,-0.0098,0,0.0306,0.0345,0.0387,0.0438,0.0462,0.0488,0.0535,0.0546,0.0536,0.0527,0.0515,0.0437,0.031,0.0189,0.0016,-0.0042,-0.0175,-0.0223,-0.0138,-0.0161,-0.0207,-0.0196,-0.0335,-0.0336,-0.0337,-0.0338,-0.0339,0,0.0304,0.033,0.0394,0.042,0.0448,0.0495,0.053,0.0557,0.0571,0.0535,0.0529,0.0408,0.0343,0.0098,-0.0025,-0.0227,-0.0236,-0.0318,-0.0239,-0.0214,-0.0233,-0.0219,-0.0206,-0.034,-0.0341,-0.0341,-0.0341,0,0.0294,0.0321,0.0355,0.0414,0.0461,0.0514,0.0567,0.0577,0.0602,0.0584,0.0531,0.0416,0.0263,0.01,-0.0065,-0.0196,-0.0266,-0.0328,-0.0326,-0.0253,-0.0222,-0.0236,-0.0223,-0.0345,-0.0344,-0.0344,-0.0344,0,0.0283,0.0305,0.0357,0.0411,0.047,0.0533,0.0555,0.0584,0.0602,0.0579,0.0553,0.0406,0.032,0.0112,-0.0034,-0.0169,-0.0188,-0.0212,-0.0216,-0.0214,-0.0109,-0.0048,-0.0159,0,0,0,0,0,0.0276,0.0313,0.0355,0.0419,0.0476,0.0521,0.0587,0.0605,0.0623,0.0596,0.0584,0.0452,0.0241,0.0141,0.0006,-0.0058,-0.0221,-0.022,-0.0252,-0.0364,-0.036,-0.0253,0,0,0,0,0,0,0.0277,0.032,0.0353,0.0427,0.0466,0.0543,0.0589,0.0601,0.0589,0.0579,0.0468,0.0419,0.0207,0.0312,0.0,-0.0043,-0.0079,-0.0321,-0.0323,-0.0366,-0.0363,-0.0359,-0.0248,0,0,0,0,0]}]]